{"data":{"norad_id":54645,"intl_designator":"2022-166D","name":"ONEWEB-0540","alt_names":[],"object_type":"PAYLOAD","status":"ACTIVE","operator":null,"country":"UK","launch_date":"2022-12-08","launch_site_code":"AFETR","launch_vehicle":null,"mission":null,"orbit_class":"UNKNOWN","rcs_meters":null,"size_class":null,"mass_kg":null,"dimensions":null,"purposes":["comms"],"wikipedia_slug":null,"has_3d_model":false,"image_url":null,"decayed_at":null,"tle_current":{"epoch":"2026-05-25T05:03:06.303168Z","epoch_age_seconds":57200,"freshness":"FRESH","line1":"1 54645U 22166D   26145.21048962  .00000020  00000+0  17659-4 0  9994","line2":"2 54645  87.9252 248.5733 0002078  98.3994 261.7376 13.21825642168494","mean_motion":13.21825642,"eccentricity":0.0002078,"inclination_deg":87.9252,"raan_deg":248.5733,"arg_perigee_deg":98.3994,"mean_anomaly_deg":261.7376,"bstar":1.7659e-5,"rev_number":16849,"period_min":108.94023797429,"perigee_km":1176.1846183449,"apogee_km":1179.324846949,"semimajor_km":7555.891732647,"source":"CELESTRAK","updated_at":"2026-05-25T13:38:22.625923Z"}}}